If you wish to contribute or participate in the discussions about articles you are invited to join SKYbrary as a registered user

 Actions

Barter Island LRRS Airport

From SKYbrary Wiki

PABA
Airport
ICAO: PABA – IATA: BTI
Summary
Name Barter Island LRRS Airport
Region North America
Territory Alaska US.gif
Location Barter Island, Alaska
Serving Barter Island
Elevation 0.61 m
2 ft
2 ft0.61 m
Type medium airport
Coordinates 70° 8' 2.36" N, 143° 34' 54.72" W
Runways
Designator Length Width Surface ROPS
7/25 1469 m4,819.554 ft
30 m98.425 ft
GRAVEL-P yes/yes


METAR
Observation PABA 141952Z 20005KT 10SM M08/M12 A3005 RMK AO2 SLP161 T10831117 FZRANO PNO $
Station Barter Island, Barter Island LRRS Airport
Date/Time 14 October 2019 19:52:00
Wind direction 200°
Wind speed 05 kts
Lowest cloud amount n/a
Temperature
Dew point
Humidity 76%
QNH hPa
Weather condition n/a

Maps

Terrain

Loading map...

Airport Layout

Loading map...


Accidents & Serious Incidents at or in vicinity of PABA

None on SKYbrary